DL1MMS-10 Weather Reports


Display with metric or nautical units.
time (UTC)temp
F
wind
direction
speed
MPH
gust
MPH
rain 1hr
in
rain 24hr
in
rain mn
in
humidity
%
barometer
mb
20260506081903 59 0 0.0 0.0 0.00 0.00 0.00 70 1007.8
20260506081402 59 0 0.0 0.0 0.00 0.00 0.00 72 1008.0
20260506080902 58 0 0.0 0.0 0.00 0.00 0.00 73 1008.0
20260506080402 58 0 0.0 0.0 0.00 0.00 0.00 74 1007.8
20260506073400 55 0 0.0 0.0 0.00 0.00 0.00 77 1008.0
20260506072900 55 0 0.0 0.0 0.00 0.00 0.00 77 1008.1
20260506072400 55 0 0.0 0.0 0.00 0.00 0.00 78 1008.2
20260506071859 54 0 0.0 0.0 0.00 0.00 0.00 78 1008.3
20260506071359 54 0 0.0 0.0 0.00 0.00 0.00 78 1008.1
20260506070859 53 0 0.0 0.0 0.00 0.00 0.00 78 1008.2
20260506070358 53 0 0.0 0.0 0.00 0.00 0.00 78 1008.2
20260506062356 50 0 0.0 0.0 0.00 0.00 0.00 82 1008.5
20260506061856 50 0 0.0 0.0 0.00 0.00 0.00 82 1008.3
20260506061356 50 0 0.0 0.0 0.00 0.00 0.00 83 1008.2
20260506060855 49 0 0.0 0.0 0.00 0.00 0.00 84 1008.2
20260506060355 49 0 0.0 0.0 0.00 0.00 0.00 85 1008.3
20260506051352 45 0 0.0 0.0 0.00 0.00 0.00 87 1008.5
20260506050852 45 0 0.0 0.0 0.00 0.00 0.00 87 1008.6
20260506050352 44 0 0.0 0.0 0.00 0.00 0.00 87 1008.7
20260506044851 42 0 0.0 0.0 0.00 0.00 0.00 87 1008.8
20260506044350 42 0 0.0 0.0 0.00 0.00 0.00 86 1008.8
20260506043850 42 0 0.0 0.0 0.00 0.00 0.00 86 1008.7
20260506043350 42 0 0.0 0.0 0.00 0.00 0.00 86 1008.7
20260506042850 42 0 0.0 0.0 0.00 0.00 0.00 86 1008.7
20260506042349 42 0 0.0 0.0 0.00 0.00 0.00 85 1008.8
20260506041849 43 0 0.0 0.0 0.00 0.00 0.00 86 1008.8
20260506041349 43 0 0.0 0.0 0.00 0.00 0.00 85 1008.9
20260506040848 43 0 0.0 0.0 0.00 0.00 0.00 85 1009.0
20260506040348 43 0 0.0 0.0 0.00 0.00 0.00 85 1009.0
20260506035848 43 0 0.0 0.0 0.00 0.00 0.00 85 1008.9
20260506035348 43 0 0.0 0.0 0.00 0.00 0.00 85 1008.9
20260506034847 43 0 0.0 0.0 0.00 0.00 0.00 85 1008.9
20260506034347 43 0 0.0 0.0 0.00 0.00 0.00 85 1008.9
20260506033847 44 0 0.0 0.0 0.00 0.00 0.00 85 1009.0
20260506033346 44 0 0.0 0.0 0.00 0.00 0.00 85 1008.9
20260506032846 43 0 0.0 0.0 0.00 0.00 0.00 85 1009.1
20260506032346 44 0 0.0 0.0 0.00 0.00 0.00 85 1009.2
20260506031846 44 0 0.0 0.0 0.00 0.00 0.00 85 1009.4
20260506031345 44 0 0.0 0.0 0.00 0.00 0.00 85 1009.4
20260506030845 44 0 0.0 0.0 0.00 0.00 0.00 85 1009.6
20260506030345 44 0 0.0 0.0 0.00 0.00 0.00 85 1009.5
20260506025844 44 0 0.0 0.0 0.00 0.00 0.00 85 1009.6
20260506025344 44 0 0.0 0.0 0.00 0.00 0.00 85 1009.7
20260506024844 44 0 0.0 0.0 0.00 0.00 0.00 85 1009.7
20260506024344 44 0 0.0 0.0 0.00 0.00 0.00 85 1009.5
20260506023843 44 0 0.0 0.0 0.00 0.00 0.00 85 1009.6
20260506023343 44 0 0.0 0.0 0.00 0.00 0.00 85 1009.7
20260506022843 44 0 0.0 0.0 0.00 0.00 0.00 85 1009.7
20260506022343 44 0 0.0 0.0 0.00 0.00 0.00 85 1009.8
20260506021842 44 0 0.0 0.0 0.00 0.00 0.00 85 1009.8
20260506021342 44 0 0.0 0.0 0.00 0.00 0.00 85 1009.9
20260506020842 44 0 0.0 0.0 0.00 0.00 0.00 85 1009.9
20260506020341 44 0 0.0 0.0 0.00 0.00 0.00 85 1009.8
20260506015841 44 0 0.0 0.0 0.00 0.00 0.00 85 1009.7
20260506015341 44 0 0.0 0.0 0.00 0.00 0.00 85 1009.7
20260506014841 44 0 0.0 0.0 0.00 0.00 0.00 85 1009.6
20260506014340 44 0 0.0 0.0 0.00 0.00 0.00 85 1009.6
20260506013840 45 0 0.0 0.0 0.00 0.00 0.00 85 1009.7
20260506013340 45 0 0.0 0.0 0.00 0.00 0.00 85 1009.8
20260506012839 45 0 0.0 0.0 0.00 0.00 0.00 85 1009.8
20260506012339 45 0 0.0 0.0 0.00 0.00 0.00 85 1009.8
20260506011839 45 0 0.0 0.0 0.00 0.00 0.00 85 1009.7
20260506011339 45 0 0.0 0.0 0.00 0.00 0.00 85 1009.9
20260506010838 44 0 0.0 0.0 0.00 0.00 0.00 85 1010.0
20260506010338 44 0 0.0 0.0 0.00 0.00 0.00 85 1010.3
20260506005838 44 0 0.0 0.0 0.00 0.00 0.00 85 1010.3
20260506005337 44 0 0.0 0.0 0.00 0.00 0.00 85 1010.4
20260506004837 44 0 0.0 0.0 0.00 0.00 0.00 85 1010.4
20260506004337 43 0 0.0 0.0 0.00 0.00 0.00 85 1010.4
20260506003837 43 0 0.0 0.0 0.00 0.00 0.00 84 1010.5
20260506003336 43 0 0.0 0.0 0.00 0.00 0.00 84 1010.3
20260506002836 43 0 0.0 0.0 0.00 0.00 0.00 83 1010.4
20260506002336 44 0 0.0 0.0 0.00 0.00 0.00 83 1010.4
20260506001835 44 0 0.0 0.0 0.00 0.00 0.00 83 1010.4
20260506001335 44 0 0.0 0.0 0.00 0.00 0.00 82 1010.4
20260506000835 45 0 0.0 0.0 0.00 0.00 0.00 82 1010.4
20260506000335 45 0 0.0 0.0 0.00 0.00 0.00 82 1010.5
20260505235834 45 0 0.0 0.0 0.00 0.00 0.00 81 1010.6
20260505235334 45 0 0.0 0.0 0.00 0.00 0.00 81 1010.6
20260505234834 46 0 0.0 0.0 0.00 0.00 0.00 81 1010.6
20260505234333 46 0 0.0 0.0 0.00 0.00 0.00 81 1010.6
20260505233833 46 0 0.0 0.0 0.00 0.00 0.00 81 1010.6
20260505233333 46 0 0.0 0.0 0.00 0.00 0.00 80 1010.6
20260505232833 46 0 0.0 0.0 0.00 0.00 0.00 80 1010.5
20260505232332 46 0 0.0 0.0 0.00 0.00 0.00 80 1010.5
20260505231832 47 0 0.0 0.0 0.00 0.00 0.00 79 1010.5
20260505231332 47 0 0.0 0.0 0.00 0.00 0.00 79 1010.6
20260505230831 47 0 0.0 0.0 0.00 0.00 0.00 79 1010.6
20260505230331 48 0 0.0 0.0 0.00 0.00 0.00 79 1010.6
20260505225831 48 0 0.0 0.0 0.00 0.00 0.00 79 1010.7
20260505225331 48 0 0.0 0.0 0.00 0.00 0.00 78 1010.7
20260505224830 48 0 0.0 0.0 0.00 0.00 0.00 78 1010.8
20260505224330 49 0 0.0 0.0 0.00 0.00 0.00 78 1010.8
20260505223830 49 0 0.0 0.0 0.00 0.00 0.00 77 1010.9
20260505223329 49 0 0.0 0.0 0.00 0.00 0.00 77 1010.8
20260505222829 49 0 0.0 0.0 0.00 0.00 0.00 77 1010.8
20260505222329 49 0 0.0 0.0 0.00 0.00 0.00 77 1010.9
20260505221829 49 0 0.0 0.0 0.00 0.00 0.00 77 1011.0
20260505221328 49 0 0.0 0.0 0.00 0.00 0.00 78 1010.9
20260505220828 49 0 0.0 0.0 0.00 0.00 0.00 78 1010.8
20260505220328 49 0 0.0 0.0 0.00 0.00 0.00 79 1010.8
20260505215827 49 0 0.0 0.0 0.00 0.00 0.00 78 1010.8
20260505215327 49 0 0.0 0.0 0.00 0.00 0.00 78 1010.8
20260505214827 49 0 0.0 0.0 0.00 0.00 0.00 78 1010.8
20260505214327 49 0 0.0 0.0 0.00 0.00 0.00 78 1010.8
20260505213826 49 0 0.0 0.0 0.00 0.00 0.00 78 1010.7
20260505213326 49 0 0.0 0.0 0.00 0.00 0.00 78 1010.8
20260505212826 49 0 0.0 0.0 0.00 0.00 0.00 78 1010.9
20260505212326 49 0 0.0 0.0 0.00 0.00 0.00 77 1010.9
20260505211825 50 0 0.0 0.0 0.00 0.00 0.00 76 1010.9
20260505211325 50 0 0.0 0.0 0.00 0.00 0.00 76 1010.8
20260505210825 50 0 0.0 0.0 0.00 0.00 0.00 75 1010.9
20260505210324 50 0 0.0 0.0 0.00 0.00 0.00 75 1010.9
20260505205824 51 0 0.0 0.0 0.00 0.00 0.00 75 1010.9
20260505205324 51 0 0.0 0.0 0.00 0.00 0.00 75 1010.8
20260505204824 51 0 0.0 0.0 0.00 0.00 0.00 74 1010.8
20260505204323 52 0 0.0 0.0 0.00 0.00 0.00 73 1010.7
20260505203823 52 0 0.0 0.0 0.00 0.00 0.00 73 1010.8
20260505203323 52 0 0.0 0.0 0.00 0.00 0.00 73 1010.8
20260505202822 53 0 0.0 0.0 0.00 0.00 0.00 72 1010.9
20260505202322 53 0 0.0 0.0 0.00 0.00 0.00 72 1011.0
20260505201822 53 0 0.0 0.0 0.00 0.00 0.00 71 1011.0
20260505201322 54 0 0.0 0.0 0.00 0.00 0.00 71 1010.9
20260505200821 54 0 0.0 0.0 0.00 0.00 0.00 71 1010.9
20260505200321 54 0 0.0 0.0 0.00 0.00 0.00 71 1010.9
20260505195821 55 0 0.0 0.0 0.00 0.00 0.00 71 1011.0
20260505195320 55 0 0.0 0.0 0.00 0.00 0.00 71 1011.0
20260505194820 55 0 0.0 0.0 0.00 0.00 0.00 72 1010.7
20260505194320 55 0 0.0 0.0 0.00 0.00 0.00 73 1010.7
20260505193820 56 0 0.0 0.0 0.00 0.00 0.00 75 1010.6
20260505193319 56 0 0.0 0.0 0.00 0.00 0.00 77 1010.7
20260505192819 56 0 0.0 0.0 0.00 0.00 0.00 77 1010.5
20260505192319 56 0 0.0 0.0 0.00 0.00 0.00 76 1010.3
20260505191818 56 0 0.0 0.0 0.00 0.00 0.00 76 1010.2
20260505191318 56 0 0.0 0.0 0.00 0.00 0.00 75 1010.2
20260505190818 56 0 0.0 0.0 0.00 0.00 0.00 74 1010.0
20260505190318 56 0 0.0 0.0 0.00 0.00 0.00 73 1010.0
20260505185817 56 0 0.0 0.0 0.00 0.00 0.00 72 1009.7
20260505185317 57 0 0.0 0.0 0.00 0.00 0.00 71 1009.8
20260505184817 57 0 0.0 0.0 0.00 0.00 0.00 70 1009.6
20260505184316 57 0 0.0 0.0 0.00 0.00 0.00 69 1009.5
20260505183816 58 0 0.0 0.0 0.00 0.00 0.00 68 1009.6
20260505183316 59 0 0.0 0.0 0.00 0.00 0.00 66 1009.7
20260505182816 59 0 0.0 0.0 0.00 0.00 0.00 65 1009.4
20260505182315 60 0 0.0 0.0 0.00 0.00 0.00 64 1009.2
20260505181815 60 0 0.0 0.0 0.00 0.00 0.00 63 1009.0
20260505181315 60 0 0.0 0.0 0.00 0.00 0.00 61 1008.9
20260505180814 61 0 0.0 0.0 0.00 0.00 0.00 61 1008.9
20260505180314 -22 0 0.0 0.0 0.00 0.00 0.00 60 1008.8
20260505175814 62 0 0.0 0.0 0.00 0.00 0.00 60 1008.8
20260505175314 62 0 0.0 0.0 0.00 0.00 0.00 59 1008.8
20260505174813 62 0 0.0 0.0 0.00 0.00 0.00 59 1008.8
20260505174313 62 0 0.0 0.0 0.00 0.00 0.00 59 1008.8
20260505173813 62 0 0.0 0.0 0.00 0.00 0.00 59 1008.6
20260505173312 62 0 0.0 0.0 0.00 0.00 0.00 59 1008.5
20260505172813 63 0 0.0 0.0 0.00 0.00 0.00 58 1008.4
20260505172312 63 0 0.0 0.0 0.00 0.00 0.00 57 1008.5
20260505171812 64 0 0.0 0.0 0.00 0.00 0.00 55 1008.5
20260505171311 65 0 0.0 0.0 0.00 0.00 0.00 54 1008.4
20260505170811 66 0 0.0 0.0 0.00 0.00 0.00 52 1008.5
20260505170311 67 0 0.0 0.0 0.00 0.00 0.00 50 1008.4
20260505165811 68 0 0.0 0.0 0.00 0.00 0.00 48 1008.3
20260505165310 70 0 0.0 0.0 0.00 0.00 0.00 47 1008.4
20260505164810 71 0 0.0 0.0 0.00 0.00 0.00 46 1008.3
20260505164310 71 0 0.0 0.0 0.00 0.00 0.00 47 1008.6
20260505163809 69 0 0.0 0.0 0.00 0.00 0.00 52 1008.4
20260505163309 66 0 0.0 0.0 0.00 0.00 0.00 54 1008.5
20260505162809 64 0 0.0 0.0 0.00 0.00 0.00 55 1008.7
20260505162309 64 0 0.0 0.0 0.00 0.00 0.00 53 1008.7
20260505161808 64 0 0.0 0.0 0.00 0.00 0.00 50 1008.8
20260505161308 65 0 0.0 0.0 0.00 0.00 0.00 49 1008.9
20260505160808 65 0 0.0 0.0 0.00 0.00 0.00 48 1008.8
20260505160307 66 0 0.0 0.0 0.00 0.00 0.00 46 1008.7
20260505153306 74 0 0.0 0.0 0.00 0.00 0.00 40 1008.5
20260505152805 76 0 0.0 0.0 0.00 0.00 0.00 40 1008.4
20260505152305 77 0 0.0 0.0 0.00 0.00 0.00 41 1008.4
20260505151805 75 0 0.0 0.0 0.00 0.00 0.00 42 1008.4
20260505151305 75 0 0.0 0.0 0.00 0.00 0.00 41 1008.4
20260505150804 77 0 0.0 0.0 0.00 0.00 0.00 40 1008.3
20260505150304 78 0 0.0 0.0 0.00 0.00 0.00 39 1008.3
20260505140301 77 0 0.0 0.0 0.00 0.00 0.00 42 1008.6
20260505130257 68 0 0.0 0.0 0.00 0.00 0.00 52 1008.7
20260505124756 67 0 0.0 0.0 0.00 0.00 0.00 53 1008.8
20260505124256 67 0 0.0 0.0 0.00 0.00 0.00 53 1008.9
20260505123756 67 0 0.0 0.0 0.00 0.00 0.00 53 1008.9
20260505123255 68 0 0.0 0.0 0.00 0.00 0.00 54 1009.0
20260505122755 68 0 0.0 0.0 0.00 0.00 0.00 55 1009.0
20260505122255 67 0 0.0 0.0 0.00 0.00 0.00 56 1008.7
20260505121755 67 0 0.0 0.0 0.00 0.00 0.00 56 1008.8
20260505121254 67 0 0.0 0.0 0.00 0.00 0.00 55 1008.8
20260505120754 67 0 0.0 0.0 0.00 0.00 0.00 54 1008.9
20260505120254 67 0 0.0 0.0 0.00 0.00 0.00 53 1009.0
20260505115754 67 0 0.0 0.0 0.00 0.00 0.00 52 1009.1
20260505115253 67 0 0.0 0.0 0.00 0.00 0.00 52 1009.0
20260505114753 67 0 0.0 0.0 0.00 0.00 0.00 51 1009.0
20260505114253 67 0 0.0 0.0 0.00 0.00 0.00 50 1009.1
20260505113752 68 0 0.0 0.0 0.00 0.00 0.00 49 1009.1
20260505113252 68 0 0.0 0.0 0.00 0.00 0.00 48 1008.9
20260505112752 69 0 0.0 0.0 0.00 0.00 0.00 47 1009.0
20260505112252 70 0 0.0 0.0 0.00 0.00 0.00 44 1009.0
20260505111751 71 0 0.0 0.0 0.00 0.00 0.00 42 1009.1
20260505111251 71 0 0.0 0.0 0.00 0.00 0.00 41 1009.1
20260505110751 73 0 0.0 0.0 0.00 0.00 0.00 39 1009.1
20260505110250 74 0 0.0 0.0 0.00 0.00 0.00 39 1009.1
20260505101748 76 0 0.0 0.0 0.00 0.00 0.00 41 1009.2
20260505101248 74 0 0.0 0.0 0.00 0.00 0.00 44 1009.3
20260505100747 72 0 0.0 0.0 0.00 0.00 0.00 46 1009.3
20260505100247 71 0 0.0 0.0 0.00 0.00 0.00 46 1009.3
20260505095747 69 0 0.0 0.0 0.00 0.00 0.00 47 1009.3
20260505095246 69 0 0.0 0.0 0.00 0.00 0.00 48 1009.4
20260505094746 68 0 0.0 0.0 0.00 0.00 0.00 49 1009.4
20260505094246 68 0 0.0 0.0 0.00 0.00 0.00 49 1009.4
20260505093746 67 0 0.0 0.0 0.00 0.00 0.00 51 1009.4
20260505093245 67 0 0.0 0.0 0.00 0.00 0.00 51 1009.4
20260505092745 67 0 0.0 0.0 0.00 0.00 0.00 52 1009.5
20260505092245 67 0 0.0 0.0 0.00 0.00 0.00 52 1009.5
20260505091744 67 0 0.0 0.0 0.00 0.00 0.00 52 1009.7
20260505091244 67 0 0.0 0.0 0.00 0.00 0.00 53 1009.7
20260505090744 67 0 0.0 0.0 0.00 0.00 0.00 55 1009.7
20260505090244 68 0 0.0 0.0 0.00 0.00 0.00 55 1009.7
20260505085743 68 0 0.0 0.0 0.00 0.00 0.00 56 1009.8
20260505085243 68 0 0.0 0.0 0.00 0.00 0.00 58 1009.8
20260505084743 68 0 0.0 0.0 0.00 0.00 0.00 60 1009.9
20260505084242 67 0 0.0 0.0 0.00 0.00 0.00 61 1009.7
20260505083742 66 0 0.0 0.0 0.00 0.00 0.00 62 1009.8
20260505083242 65 0 0.0 0.0 0.00 0.00 0.00 63 1009.9
20260505082742 65 0 0.0 0.0 0.00 0.00 0.00 63 1010.0